This is the latest recevied weather packets stored in our database for station/object K5GHS-1. If no packets are shown the sender has not sent any weather packets the latest 10 day(s).
| Time | Temp. | Humidity | Pressure | Rain* | Wind** | Luminosity | Snow |
|---|---|---|---|---|---|---|---|
| 1777859229 | 23.33° C | 42% | 1013.7 hPa | 0 mm | - | 0 W/m² | - |
| 1777858926 | 23.89° C | 42% | 1013.9 hPa | 0 mm | - | 0 W/m² | - |
| 1777858624 | 23.89° C | 41% | 1013.8 hPa | 0 mm | - | 0 W/m² | - |
| 1777858321 | 23.89° C | 41% | 1013.8 hPa | 0 mm | - | 0 W/m² | - |
| 1777858017 | 23.89° C | 40% | 1013.7 hPa | 0 mm | - | 0 W/m² | - |
| 1777857715 | 23.89° C | 38% | 1013.6 hPa | 0 mm | - | 0 W/m² | - |
| 1777857412 | 24.44° C | 37% | 1013.5 hPa | 0 mm | - | 0 W/m² | - |
| 1777857108 | 24.44° C | 37% | 1013.4 hPa | 0 mm | - | 0 W/m² | - |
| 1777856804 | 24.44° C | 37% | 1013.8 hPa | 0 mm | - | 1 W/m² | - |
| 1777856500 | 24.44° C | 37% | 1013.6 hPa | 0 mm | - | 2 W/m² | - |
| 1777856197 | 24.44° C | 36% | 1013.4 hPa | 0 mm | - | 4 W/m² | - |
| 1777855893 | 25° C | 36% | 1013.6 hPa | 0 mm | - | 4 W/m² | - |
| 1777855592 | 25° C | 36% | 1013.3 hPa | 0 mm | - | 5 W/m² | - |
| 1777855289 | 25° C | 36% | 1013.4 hPa | 0 mm | - | 10 W/m² | - |
| 1777854985 | 25° C | 35% | 1013.6 hPa | 0 mm | - | 11 W/m² | - |
| 1777854682 | 25.56° C | 36% | 1013.4 hPa | 0 mm | - | 13 W/m² | - |
| 1777854379 | 25.56° C | 35% | 1013.4 hPa | 0 mm | - | 17 W/m² | - |
| 1777854076 | 25.56° C | 35% | 1013.5 hPa | 0 mm | - | 20 W/m² | - |
| 1777853774 | 25.56° C | 35% | 1013.5 hPa | 0 mm | - | 22 W/m² | - |
| 1777853469 | 25.56° C | 35% | 1013.6 hPa | 0 mm | - | 29 W/m² | - |
| 1777853167 | 26.11° C | 34% | 1013.6 hPa | 0 mm | - | 27 W/m² | - |
| 1777852864 | 26.11° C | 33% | 1013.7 hPa | 0 mm | - | 28 W/m² | - |
| 1777852563 | 26.11° C | 33% | 1013.7 hPa | 0 mm | - | 27 W/m² | - |
| 1777852259 | 26.11° C | 34% | 1013.8 hPa | 0 mm | - | 31 W/m² | - |
| 1777851957 | 26.11° C | 33% | 1013.7 hPa | 0 mm | - | 36 W/m² | - |
* Rain latest hour (hover to see other rain measurements)
** Current wind speed in m/s (hover to see current wind gust speed)